This demonstration page uses our WeatherBlox Daily Observations layout. Learn more.

Hourly Observations for July 20, 2015

Temp ( °F °C ) Dew Point ( °F °C ) Humidity (%) Winds ( mph kmh ) Pressure ( in mb ) Visibility ( mi km ) Precip ( " mm )
12:15 am 00:15 Clear 74 23.2 69 20.3 84 84 Calm 29.85 1011 10 16.0934 0 0
12:35 am 00:35 Clear 74 23.2 69 20.3 84 84 SSE 3 6 29.85 1011 10 16.0934 0 0
12:55 am 00:55 Clear 73 23 69 20.3 85 85 Calm 29.85 1011 10 16.0934 0 0
1:15 am 01:15 Clear 73 23 69 20.4 85 85 S 3 6 29.85 1011 10 16.0934 0 0
1:35 am 01:35 Partly Cloudy 73 22.9 69 20.5 86 86 S 7 11 29.91 1013 10 16.0934 0 0
1:55 am 01:55 Partly Cloudy 74 23.4 66 19.1 77 77 S 15 24 29.85 1011 10 16.0934 0 0
2:15 am 02:15 Clear 72 22.2 65 18.1 78 78 SSW 13 20 29.88 1012 10 16.0934 0 0
2:35 am 02:35 Clear 71 21.8 65 18.6 82 82 SW 9 15 29.88 1012 10 16.0934 0 0
2:55 am 02:55 Clear 71 21.5 66 18.9 85 85 SSW 6 9 29.85 1011 10 16.0934 0 0
3:15 am 03:15 Partly Cloudy 71 21.5 66 19.1 86 86 SW 7 11 29.85 1011 10 16.0934 0 0
3:35 am 03:35 Clear 71 21.5 67 19.2 87 87 SW 8 13 29.83 1010 10 16.0934 0 0
3:55 am 03:55 Clear 71 21.5 66 19.1 86 86 WSW 7 11 29.83 1010 10 16.0934 0 0
4:15 am 04:15 Clear 71 21.5 67 19.2 87 87 WSW 9 15 29.83 1010 10 16.0934 0 0
4:35 am 04:35 Clear 71 21.5 67 19.5 88 88 W 9 15 29.83 1010 10 16.0934 0 0
4:55 am 04:55 Clear 71 21.5 67 19.6 89 89 W 9 15 29.83 1010 10 16.0934 0 0
5:15 am 05:15 Clear 71 21.5 68 19.8 90 90 W 9 15 29.83 1010 10 16.0934 0 0
5:35 am 05:35 Clear 71 21.5 68 19.9 91 91 W 7 11 29.83 1010 10 16.0934 0 0
5:55 am 05:55 Clear 71 21.5 67 19.7 90 90 W 5 7 29.83 1010 10 16.0934 0 0
6:15 am 06:15 Clear 70 21.2 67 19.6 91 91 W 5 7 29.85 1011 10 16.0934 0 0
6:35 am 06:35 Sunny 70 21 67 19.7 92 92 W 7 11 29.85 1011 10 16.0934 0 0
6:55 am 06:55 Sunny 70 21.1 67 19.7 92 92 W 7 11 29.83 1010 10 16.0934 0 0
7:15 am 07:15 Sunny 71 21.5 68 19.8 90 90 W 8 13 29.83 1010 10 16.0934 0 0
7:35 am 07:35 Sunny 71 21.8 67 19.6 87 87 W 6 9 29.85 1011 10 16.0934 0 0
7:55 am 07:55 Sunny 72 22.4 67 19.7 85 85 WNW 7 11 29.85 1011 10 16.0934 0 0
8:15 am 08:15 Sunny 73 23 67 19.5 81 81 NW 8 13 29.83 1010 10 16.0934 0 0
8:35 am 08:35 Sunny 74 23.4 67 19.4 78 78 NW 9 15 29.83 1010 10 16.0934 0 0
8:55 am 08:55 Sunny 75 23.8 67 19.3 76 76 NNW 9 15 29.83 1010 10 16.0934 0 0
9:15 am 09:15 Sunny 76 24.2 67 19.3 74 74 NNW 15 24 29.85 1011 10 16.0934 0 0
9:35 am 09:35 Sunny 76 24.5 67 19.2 72 72 NNW 12 19 29.85 1011 10 16.0934 0 0
9:55 am 09:55 Sunny 77 25.2 67 19.6 71 71 N 10 17 29.85 1011 10 16.0934 0 0
10:15 am 10:15 Sunny 79 25.9 66 18.8 65 65 NNW 12 19 29.85 1011 10 16.0934 0 0
10:35 am 10:35 Sunny 80 26.6 67 19.7 66 66 N 14 22 29.83 1010 10 16.0934 0 0
10:55 am 10:55 Sunny 80 26.9 67 19.5 64 64 N 12 19 29.83 1010 10 16.0934 0 0
11:15 am 11:15 Sunny 81 27 67 19.3 63 63 N 14 22 29.85 1011 10 16.0934 0 0
11:35 am 11:35 Sunny 81 27.4 67 19.4 62 62 N 15 24 29.85 1011 10 16.0934 0 0
11:55 am 11:55 Sunny 82 27.7 67 19.3 60 60 NNE 17 28 29.85 1011 10 16.0934 0 0
12:15 pm 12:15 Partly Cloudy 82 27.9 66 19.1 59 59 N 16 26 29.85 1011 10 16.0934 0 0
12:35 pm 12:35 Partly Cloudy 81 27.3 67 19.2 61 61 NNE 16 26 29.85 1011 10 16.0934 0 0
12:55 pm 12:55 Partly Cloudy 81 27 67 19.5 64 64 NNE 16 26 29.91 1013 10 16.0934 0 0
1:15 pm 13:15 Sunny 80 26.9 67 19.4 64 64 NNE 15 24 29.91 1013 10 16.0934 0 0
1:35 pm 13:35 Sunny 81 27.4 65 18.6 59 59 NNE 13 20 29.91 1013 10 16.0934 0 0
1:55 pm 13:55 Sunny 82 27.5 65 18.6 58 58 NNE 14 22 29.88 1012 10 16.0934 0 0
2:15 pm 14:15 Sunny 82 27.9 65 18.4 56 56 N 12 19 29.85 1011 10 16.0934 0 0
2:35 pm 14:35 Sunny 83 28.5 64 17.7 52 52 NNE 12 19 29.85 1011 10 16.0934 0 0
2:55 pm 14:55 Sunny 83 28.6 64 17.6 51 51 NNE 10 17 29.85 1011 10 16.0934 0 0
3:15 pm 15:15 Sunny 84 28.9 64 17.7 51 51 NNE 14 22 29.88 1012 10 16.0934 0 0
3:35 pm 15:35 Sunny 83 28.5 63 17 50 50 NNE 12 19 29.88 1012 10 16.0934 0 0
3:55 pm 15:55 Sunny 84 28.7 62 16.6 48 48 NE 9 15 29.88 1012 10 16.0934 0 0
4:15 pm 16:15 Sunny 85 29.3 63 17 47 47 ENE 10 17 29.88 1012 10 16.0934 0 0
4:35 pm 16:35 Partly Cloudy 84 29 62 16.4 47 47 NE 12 19 29.88 1012 10 16.0934 0 0
4:55 pm 16:55 Partly Cloudy 84 28.7 61 15.9 46 46 NNE 12 19 29.88 1012 10 16.0934 0 0
5:15 pm 17:15 Sunny 84 28.8 60 15.3 44 44 NNE 13 20 29.88 1012 10 16.0934 0 0
5:35 pm 17:35 Sunny 83 28.6 58 14.5 42 42 NNE 10 17 29.85 1011 10 16.0934 0 0
5:55 pm 17:55 Sunny 83 28.5 57 14 41 41 NE 9 15 29.85 1011 10 16.0934 0 0
6:15 pm 18:15 Sunny 83 28.2 57 13.9 42 42 NE 10 17 29.85 1011 10 16.0934 0 0
6:35 pm 18:35 Sunny 83 28.1 57 14 42 42 NNE 10 17 29.85 1011 10 16.0934 0 0
6:55 pm 18:55 Sunny 82 27.5 57 13.9 43 43 NNE 12 19 29.85 1011 10 16.0934 0 0
7:15 pm 19:15 Sunny 81 27 58 14.2 45 45 NE 9 15 29.85 1011 10 16.0934 0 0
7:35 pm 19:35 Sunny 80 26.4 60 15.4 51 51 NE 7 11 29.88 1012 10 16.0934 0 0
7:55 pm 19:55 Sunny 78 25.6 58 14.6 51 51 NE 7 11 29.88 1012 10 16.0934 0 0
8:15 pm 20:15 Sunny 76 24.6 58 14.5 53 53 NE 7 11 29.88 1012 10 16.0934 0 0
8:35 pm 20:35 Sunny 74 23.3 60 15.3 61 61 NE 6 9 29.91 1013 10 16.0934 0 0
8:55 pm 20:55 Sunny 72 22.1 61 16 68 68 ENE 6 9 29.94 1014 10 16.0934 0 0
9:15 pm 21:15 Clear 69 20.8 61 16 74 74 ENE 7 11 29.94 1014 10 16.0934 0 0
9:35 pm 21:35 Clear 69 20.3 60 15.6 75 75 E 6 9 29.94 1014 10 16.0934 0 0
9:55 pm 21:55 Clear 68 19.8 61 16 79 79 ENE 6 9 29.94 1014 10 16.0934 0 0
10:15 pm 22:15 Clear 66 19.1 61 16.1 83 83 ENE 7 11 30 1016 10 16.0934 0 0
10:35 pm 22:35 Clear 67 19.4 60 15.3 77 77 ENE 7 11 30 1016 10 16.0934 0 0
10:55 pm 22:55 Clear 66 18.8 59 15.1 79 79 E 3 6 30 1016 10 16.0934 0 0
11:15 pm 23:15 Clear 67 19.5 59 15 75 75 ESE 3 6 30 1016 10 16.0934 0 0
11:35 pm 23:35 Clear 67 19.3 59 15 76 76 SSE 3 6 30 1016 10 16.0934 0 0
11:55 pm 23:55 Clear 67 19.2 59 15.1 77 77 Calm 30 1016 10 16.0934 0 0

Powered by AerisWeather